Regional Weather Roundup
Issued by NWS Northern Indiana

Home | Current Version | Previous Version | Graphics & Text | Print | Product List | Glossary Off
Versions: 1 2 3 4 5 6 7 8 9 10 11 12 13 14 15 16 17 18 19 20 21 22 23 24 25 26 27 28 29 30 31 32 33 34 35 36 37 38 39 40 41 42 43 44 45 46 47 48 49 50

542
ASUS43 KIWX 210710
RWRIWX

KIWX WEATHER ROUNDUP
NATIONAL WEATHER SERVICE NORTHERN INDIANA
300 AM EDT THU SEP 21 2017

NOTE: "FAIR" INDICATES FEW OR NO CLOUDS BELOW 12,000 FEET WITH NO
SIGNIFICANT WEATHER AND/OR OBSTRUCTIONS TO VISIBILITY.

* THESE STATIONS ARE NOT UNDER NWS QUALITY CONTROL. THEY ALSO MAY NOT
  REPORT WEATHER SUCH AS PRECIPITATION OR FOG.

INZ001>027-210800-
NORTHERN INDIANA

CITY           SKY/WX    TMP DP  RH WIND       PRES   REMARKS
GARY*          CLOUDY    76  68  78 S3        29.97S
VALPARAISO     CLOUDY    74  69  85 S6        29.99F
MICHIGAN CITY* CLOUDY    75  66  73 S6        29.99S
LAPORTE*       CLOUDY    71  67  89 S5        30.00F
KNOX*          CLOUDY    68  66  94 CALM      30.00S
SOUTH BEND     PTCLDY    71  69  93 S5        30.00S
GOSHEN         MOCLDY    71  66  84 S5        30.02R
MONTICELLO*    CLOUDY    69  67  95 CALM      30.01R
LOGANSPORT*    CLEAR     68  64  88 CALM      30.03R
ROCHESTER*     CLOUDY    75  72  88 S3        30.03
WARSAW*        MOCLDY    72  70  94 CALM      30.03R
AUBURN*        CLOUDY    68  64  88 CALM      30.04S
FORT WAYNE     PTCLDY    68  66  93 CALM      30.04R
HUNTINGTON*    CLEAR     71  69  96 S3        30.03R
PERU/GRISSOM   PTCLDY    71  71 100 S6        30.01S

$$
INZ028>050-210800-
CENTRAL INDIANA

CITY           SKY/WX    TMP DP  RH WIND       PRES   REMARKS
LAFAYETTE      CLOUDY    70  69  97 CALM      30.00R
KOKOMO*        CLEAR     69  68  96 S7        30.03S
MUNCIE*        CLEAR     73  68  84 S5        30.05R
INDIANAPOLIS   CLEAR     72  69  90 SW3       30.03R

$$
MIZ043>046-050>051-056>058-064>065-071>073-077>080-210800-
SOUTHWEST LOWER MICHIGAN

CITY           SKY/WX    TMP DP  RH WIND       PRES   REMARKS
BATTLE CREEK   CLOUDY    72  68  87 SE5       30.02F
BENTON HARBOR  CLOUDY    75  67  76 S3        29.98R
COLDWATER*     CLOUDY    70  69  98 CALM      30.03F
HILLSDALE*     CLOUDY    68  64  88 SE5       30.05S
HOLLAND        CLOUDY    72  68  87 CALM      29.99R
GRAND RAPIDS   CLOUDY    72  69  90 S7        29.99S
KALAMAZOO      CLOUDY    73  66  78 S5        30.01S
STURGIS*       CLOUDY    72  68  88 S3        30.02S
THREE RIVERS*  FAIR      72  68  88 S5        30.02S

$$
OHZ001>008-015>018-024>025-210800-
NORTHWEST OHIO

CITY           SKY/WX    TMP DP  RH WIND       PRES   REMARKS
WAUSEON*       FAIR      64  64 100 NE3       30.05R FOG
DEFIANCE       PTCLDY    66  64  93 CALM      30.04S FOG
FINDLAY        CLEAR     69  64  84 CALM      30.04F
TOLEDO EXPRESS CLEAR     65  65 100 E3        30.04F
TOLEDO METCALF CLEAR     67  65  93 E3        30.06R FOG
LIMA           CLEAR     68  67  96 S7        30.05F

$$
AND FOR LAKE MICHIGAN COASTAL AND OPEN LAKE BUOY OBSERVATIONS

STATION/POSITION TEMP    WIND        PRES    VSBY  WAVE
                 AIR SEA DIR/SP/G                  HT/PER
                 (F)     (DEG/KT/KT) (MB)    (MI)  (FT/S)
CALUMET HARBOR    77     190/  5/  7 1013.8S
MICHIGAN CITY     78     160/ 14/ 18   N/A
BURNS HARBOR      75     190/ 11/ 14 1015.2R
SAINT JOSEPH      76     160/  3/  9 1015.9
SOUTH LAKE BUOY   72 69   40/  6/  8 1015.1R         1/ 3
4 MI NW BRIDGMAN  73 69  210/  6/  8 1014.7          1
MICHIGAN CITY     74 70  190/ 10/ 14   N/A           1

$$
&&




USA.gov is the U.S. government's official web portal to all federal, state and local government web resources and services.